FENGYUN 3B

Last updated on Thu Jul 03 2025 00:02:22 GMT+0000 (Coordinated Universal Time)

1 37214U 10059A 25183.59805299 .00000053 00000+0 50807-4 0 9999 2 37214 99.0114 222.2018 0023207 96.8753 17.4839 14.14735544758035
UTC large
Height (km)
Speed (km/s)
/
Latitude / Longitude
Inclination (degrees)
Orbital Period (minutes)
Azimuth
Elevation
Range (km)
Doppler Factor

Next 0 passes for location: London (51.5072 / 0.1276)

Sorry there are no passes over London.